Weather History for Limon, CO

Change the Weather History Date:

Tuesday, May 14, 2013

  Actual Average Record
Temperature  
Mean Temperature 66 °F -  
Max Temperature 86 °F - 86 °F (2013)
Min Temperature 45 °F - 24 °F (2008)
Degree Days  
Heating Degree Days 0    
Month to date heating degree days 237  
Cooling Degree Days 1    
Month to date cooling degree days 1  
Growing Degree Days 16 (Base 50)    
Moisture  
Dew Point 40 °F    
Average Humidity 54    
Maximum Humidity 93    
Minimum Humidity 14    
Precipitation  
Precipitation 0.00 in - 0.24 in (2007)
Month to date precipitation 1.70  
Year to date precipitation 4.20  
Sea Level Pressure  
Sea Level Pressure 29.82 in    
Wind  
Wind Speed 7 mph (NNW)    
Max Wind Speed 25 mph    
Max Gust Speed 32 mph    
Visibility 10 miles    
Events      
T = Trace of Precipitation, MM = Missing Value Source: NWS Daily Summary

Daily Weather History Graph

Daily Weather History Graph

Search for Another Location

Airport:

Trip Planner

Search our weather history database for the weather conditions in past years. The results will help you decide how hot, cold, wet, or windy it might be!

Date:

Astronomy

May. 14, 2013 Rise Set
Actual Time 5:41 AM MDT 8:00 PM MDT
Civil Twilight 5:11 AM MDT 8:30 PM MDT
Nautical Twilight 4:34 AM MDT 9:08 PM MDT
Astronomical Twilight 3:53 AM MDT 9:49 PM MDT
Moon 9:23 AM MDT (5/14) 11:49 PM MDT (5/14)
Length of Visible Light 15h 19m
Length of Day
14h 18m
Waxing Crescent, 19% of the Moon is Illuminated
May 14
Waxing Crescent
May 17
First Quarter
May 24
Full
May 31
Last Quarter
Jun 8
New

Hourly Weather History & Observations

Time (MDT) Temp. Windchill Dew Point Humidity Pressure Visibility Wind Dir Wind Speed Gust Speed Precip Events Conditions
12:55 AM 50.0 °F - 46.0 °F 86% 29.90 in 10.0 mi NNW 3.5 mph - N/A   Clear
1:55 AM 48.9 °F - 46.0 °F 90% 29.88 in 10.0 mi North 4.6 mph - N/A   Clear
2:55 AM 46.9 °F - 44.1 °F 90% 29.86 in 10.0 mi NNW 3.5 mph - N/A   Clear
3:55 AM 46.9 °F - 43.0 °F 86% 29.86 in 10.0 mi North 6.9 mph - N/A   Clear
4:55 AM 46.0 °F 41.9 °F 42.1 °F 86% 29.86 in 10.0 mi North 8.1 mph - N/A   Clear
5:55 AM 46.9 °F - 42.1 °F 83% 29.86 in 10.0 mi North 5.8 mph - N/A   Clear
6:55 AM 55.0 °F - 44.1 °F 67% 29.86 in 10.0 mi NW 5.8 mph - N/A   Clear
7:55 AM 64.0 °F - 43.0 °F 46% 29.87 in 10.0 mi NW 4.6 mph - N/A   Clear
8:55 AM 73.0 °F - 41.0 °F 31% 29.86 in 10.0 mi WNW 8.1 mph - N/A   Clear
9:55 AM 79.0 °F - 41.0 °F 26% 29.83 in 10.0 mi NNW 6.9 mph - N/A   Clear
10:55 AM 82.9 °F - 35.1 °F 18% 29.83 in 10.0 mi North 11.5 mph - N/A   Clear
11:55 AM 84.0 °F - 32.0 °F 15% 29.82 in 10.0 mi NE 10.4 mph 25.3 mph N/A   Clear
12:55 PM 86.0 °F - 35.1 °F 16% 29.79 in 10.0 mi ENE 10.4 mph 17.3 mph N/A   Clear
1:55 PM 84.9 °F - 30.9 °F 14% 29.78 in 10.0 mi NE 9.2 mph - N/A   Clear
2:55 PM 84.0 °F - 30.9 °F 15% 29.77 in 10.0 mi ENE 10.4 mph - N/A   Clear
3:20 PM 80.6 °F - 35.6 °F 20% 29.97 in 10.0 mi South 18.4 mph 26.5 mph N/A   Scattered Clouds
3:55 PM 81.0 °F - 34.0 °F 18% 29.78 in 10.0 mi South 16.1 mph 21.9 mph N/A   Clear
4:55 PM 81.0 °F - 33.1 °F 18% 29.76 in 10.0 mi South 10.4 mph - N/A   Clear
5:55 PM 79.0 °F - 37.9 °F 23% 29.78 in 10.0 mi NNW 18.4 mph - N/A   Partly Cloudy
6:55 PM 72.0 °F - 39.9 °F 31% 29.78 in 10.0 mi NNW 16.1 mph - N/A   Clear
7:55 PM 66.9 °F - 44.1 °F 44% 29.78 in 10.0 mi North 8.1 mph - N/A   Clear
8:55 PM 66.0 °F - 44.1 °F 45% 29.76 in 10.0 mi NNW 5.8 mph - N/A   Clear
9:55 PM 66.0 °F - 45.0 °F 47% 29.76 in 10.0 mi West 6.9 mph - N/A   Mostly Cloudy
10:55 PM 63.0 °F - 46.9 °F 56% 29.78 in 10.0 mi South 3.5 mph - N/A   Overcast
11:55 PM 63.0 °F - 44.1 °F 50% 29.77 in 10.0 mi WNW 8.1 mph - N/A   Mostly Cloudy